User: anonymous   Login
Location: Caltech
(34.1382°N, 118.1253°W)
Time: 15:57:26
(UTC-08:00)
Language:

Cosmos 1937 Rocket - Orbit

View from above orbital plane
View from above orbital plane
View from above satellite
View from above satellite

Ground track
Ground track

The orbit data is extracted from the following two-line orbital elements,

1 19039U 88029B   16343.40188696  .00000079  00000-0  34498-4 0  9996
2 19039  74.0485 290.7450 0023183 154.2210 349.6888 14.38343016503424
Epoch (UTC): 08 December 2016 09:38:43
Eccentricity: 0.0023183
inclination: 74.0485°
perigee height: 747 km
apogee height: 780 km
right ascension of ascending node: 290.7450°
argument of perigee: 154.2210°
revolutions per day: 14.38343016
mean anomaly at epoch: 349.6888°
orbit number at epoch: 50342

The dashed part of the orbit path shows where the satellite is in the earth's shadow,  

DLR